[[{"header":{"parameterUnit":"m.s-1","parameterCategory":1,"la1":30.2991,"la2":30.254,"lo1":-89.0895,"lo2":-89.0444,"dy":0.0017,"dx":0.0017,"nx":28,"ny":28,"refTime":"2024-10-09T09:00:00:Z","depth":0,"parameterNumber":2,"parameterNumberName":"U-component_of_WINDS"},"data":[0,0,0,0,0,0,0,0,0,0,0,0,0,0,0,0,0,0,0,0,0,0,0,0,0,0,0,0,0,0,0,0,0,0,0,0,0,0,0,0,0,0,0,0,0,0,0,0,0,0,0,0,0,0,0,0,0,0,-1.7785,-1.7786,0,-1.7879,-1.788,-1.7881,-1.7836,-1.7833,-1.7831,-1.7829,-1.7927,-1.7932,-1.7937,0,0,0,0,0,0,0,0,0,0,0,0,0,-1.7569,-1.7573,-1.7785,-1.7786,-1.7787,-1.7878,-1.788,-1.7881,-1.7836,-1.7833,-1.783,-1.7827,-1.7925,-1.7931,-1.7937,0,0,0,0,0,0,0,0,0,0,0,0,0,-1.7663,-1.7575,-1.7784,-1.7776,-1.7776,-1.7878,-1.788,-1.7881,-1.7837,-1.7833,-1.7829,-1.7826,-1.7923,-1.7931,-1.7938,-1.8055,0,0,-1.796,-1.7963,0,0,0,0,0,0,0,0,-1.7658,-1.7671,-1.7776,-1.7776,-1.7777,-1.7842,-1.784,-1.794,-1.7838,-1.7814,-1.7829,-1.7824,-1.7902,-1.7911,-1.7936,-1.806,-1.8064,-1.7961,-1.7965,-1.7968,-1.797,0,0,0,0,0,0,0,-1.7651,-1.7667,-1.7822,-1.7777,-1.7778,-1.7768,-1.7777,-1.7858,-1.7877,-1.7815,-1.7812,-1.7824,-1.7901,-1.7929,-1.7938,-1.8065,-1.796,-1.7967,-1.7971,-1.7974,-1.8291,-1.8295,0,0,0,0,0,0,-1.7645,-1.7661,-1.7819,-1.7825,-1.7707,-1.7775,-1.7785,-1.7825,-1.7876,-1.788,-1.7827,-1.7822,-1.7919,-1.793,-1.7941,-1.8084,-1.7968,-1.7975,-1.7979,-1.8287,-1.8292,-1.8296,0,0,0,0,0,0,-1.764,-1.7659,-1.7815,-1.7742,-1.7761,-1.7782,-1.7827,-1.7828,-1.7856,-1.7884,-1.7888,-1.7852,-1.7916,-1.7931,-1.8027,-1.8086,-1.7978,-1.7985,-1.8282,-1.8289,-1.8294,-1.8368,0,0,0,0,0,0,-1.7634,-1.7658,-1.7702,-1.7744,-1.7765,-1.7899,-1.783,-1.7833,-1.7869,-1.7862,-1.7909,-1.7913,-1.7914,-1.8017,-1.8035,-1.8094,-1.7991,-1.8277,-1.8285,-1.8292,-1.836,-1.8376,-1.8389,0,0,0,0,0,-1.7627,-1.7719,-1.7705,-1.7724,-1.7821,-1.7903,-1.7915,-1.7914,-1.7873,-1.7919,-1.7937,-1.7912,-1.8076,-1.8027,-1.8047,-1.811,-1.8273,-1.8283,-1.8292,-1.8354,-1.8373,-1.8389,0,0,0,0,0,0,-1.7685,-1.7725,-1.7709,-1.7817,-1.7857,-1.7895,-1.7952,-1.7934,-1.7986,-1.7978,-1.7975,-1.7986,-1.8086,-1.8107,-1.8051,-1.8226,-1.8169,-1.8182,-1.8209,-1.8228,-1.8242,-1.8236,-1.7997,0,0,0,0,0,-1.771,-1.7773,-1.7804,-1.7897,-1.7917,-1.7931,-1.7967,-1.7962,-1.8003,-1.802,-1.8045,-1.8087,-1.8148,-1.8188,-1.8246,-1.8362,-1.8373,-1.8415,-1.843,-1.8441,-1.8454,-1.8518,-1.8538,-1.8326,-1.8326,-1.8326,0,0,-1.7764,-1.7793,-1.7833,-1.7909,-1.7939,-1.8005,-1.7946,-1.8017,-1.8066,-1.8031,-1.8124,-1.8144,-1.819,-1.8297,-1.8345,-1.8318,-1.8514,-1.8453,-1.8462,-1.8468,-1.853,-1.855,-1.8568,-1.8332,-1.8331,-1.833,0,0,-1.7896,-1.7923,-1.8004,-1.8035,-1.8081,-1.809,-1.8109,-1.815,-1.8162,-1.8254,-1.823,-1.8288,-1.8393,-1.8427,-1.8459,-1.8603,-1.8582,-1.8621,-1.8697,-1.876,-1.8777,-1.8791,-1.8845,-1.8864,-1.8633,-1.8633,-1.8633,0,-1.7957,-1.8054,-1.8048,-1.8122,-1.8157,-1.8127,-1.821,-1.8241,-1.8304,-1.8329,-1.8296,-1.8428,-1.8457,-1.8573,-1.8608,-1.8633,-1.8657,-1.8617,-1.8774,-1.8789,-1.8803,-1.8854,-1.8874,-1.8638,-1.8637,-1.8637,-1.8636,0,-1.8127,-1.8195,-1.8255,-1.8316,-1.8358,-1.8436,-1.8443,-1.8486,-1.8478,-1.849,-1.8585,-1.8618,-1.8683,-1.8709,-1.8702,-1.8825,-1.8806,-1.8774,-1.8717,-1.8828,-1.8876,-1.8895,-1.8645,-1.8643,-1.8641,-1.864,0,0,-1.83,-1.8357,-1.8379,-1.8407,-1.8455,-1.8508,-1.8585,-1.8647,-1.8685,-1.8729,-1.8794,-1.8883,-1.8854,-1.889,-1.8886,-1.8941,-1.9055,-1.8902,-1.8903,-1.8931,-1.9194,-1.922,-1.9242,-1.904,-1.9044,-1.9047,-1.9191,0,-1.8437,-1.8571,-1.8568,-1.8693,-1.8757,-1.8729,-1.8796,-1.8833,-1.8847,-1.8903,-1.8917,-1.8982,-1.8937,-1.8959,-1.9011,-1.903,-1.9108,-1.9019,-1.9103,-1.9106,-1.9095,-1.9267,-1.9294,-1.9428,-1.9209,-1.9212,-1.9215,0,-1.8615,-1.8664,-1.8795,-1.8835,-1.8861,-1.8922,-1.8979,-1.9033,-1.9075,-1.9081,-1.912,-1.9108,-1.9187,-1.9125,-1.9235,-1.9174,-1.9208,-1.9223,-1.9228,-1.9238,-1.9169,-1.9284,-1.9471,-1.9492,-1.9244,-1.9241,-1.9239,0,-1.873,-1.883,-1.8921,-1.8946,-1.8994,-1.9037,-1.9059,-1.9097,-1.9135,-1.9185,-1.921,-1.9269,-1.9302,-1.9348,-1.9352,-1.9306,-1.9464,-1.9402,-1.9472,-1.9472,-1.9509,-1.9507,-1.9706,-1.9526,-1.9526,-1.9526,-1.9525,0,-1.8885,-1.8967,-1.8974,-1.9031,-1.9122,-1.9118,-1.9209,-1.9227,-1.9261,-1.9322,-1.9301,-1.9358,-1.9359,-1.9418,-1.9421,-1.9513,-1.9527,-1.9535,-1.9536,-1.9539,-1.9538,-1.9563,-1.9555,-1.9531,-1.953,-1.9529,-1.9528,0,-1.903,-1.9038,-1.9137,-1.9174,-1.9185,-1.9251,-1.9283,-1.9338,-1.9348,-1.9425,-1.9443,-1.946,-1.9529,-1.9536,-1.9616,-1.9618,-1.9729,-1.9718,-1.9715,-1.9715,-1.9785,-1.978,-2.001,-2.0041,-1.9838,-1.984,-1.9842,0,-1.913,-1.9192,-1.9235,-1.9274,-1.9299,-1.9361,-1.94,-1.9398,-1.9439,-1.9492,-1.954,-1.9606,-1.9659,-1.9769,-1.979,-1.9851,-1.9843,-1.9919,-1.9852,-1.9853,-1.9847,-1.9844,-1.9851,-1.9933,-1.9935,-1.9937,-1.9938,0,-1.9306,-1.9306,-1.9362,-1.942,-1.9466,-1.9512,-1.9555,-1.9588,-1.9591,-1.9639,-1.9708,-1.9749,-1.983,-1.9896,-1.9956,-1.998,-1.9961,-1.9959,-1.9979,-1.9984,-1.9981,-1.9986,-1.9754,-1.9954,-1.9953,-1.9952,-1.9951,-1.995,-1.9433,-1.9487,-1.9527,-1.959,-1.9622,-1.9662,-1.9716,-1.9733,-1.979,-1.9856,-1.9851,-1.9928,-1.9969,-2.0047,-2.0075,-2.0136,-2.011,-2.0139,-2.0146,-2.0154,-2.0162,-1.9969,-2.0146,-2.0146,-2.0145,-2.0145,-2.0145,0,-1.961,-1.9633,-1.9691,-1.9752,-1.9802,-1.9777,-1.9823,-1.9868,-1.9935,-1.9974,-2.0027,-2.0107,-2.0171,-2.0196,-2.0259,-2.0303,-2.0296,-2.0319,-2.0318,-2.0324,-2.018,-2.0158,-2.0324,-2.0324,-2.0324,-2.0324,-2.0324,-2.0324,-1.9708,-1.98,-1.9805,-1.9913,-1.9936,-2.0011,-2.0039,-2.0077,-2.0108,-2.0198,-2.0251,-2.0267,-2.0301,-2.0366,-2.0424,-2.043,-2.0455,-2.0483,-2.0485,-2.0352,-2.0334,-2.0316,-2.0295,-2.0488,-2.0488,-2.0624,-2.0625,-2.0626]},{"header":{"parameterUnit":"m.s-1","parameterCategory":1,"la1":30.2991,"la2":30.254,"lo1":-89.0895,"lo2":-89.0444,"dy":0.0017,"dx":0.0017,"nx":28,"ny":28,"refTime":"2024-10-09T09:00:00:Z","depth":0,"parameterNumber":3,"parameterNumberName":"V-component_of_WINDS"},"data":[0,0,0,0,0,0,0,0,0,0,0,0,0,0,0,0,0,0,0,0,0,0,0,0,0,0,0,0,0,0,0,0,0,0,0,0,0,0,0,0,0,0,0,0,0,0,0,0,0,0,0,0,0,0,0,0,0,0,-4.3202,-4.3202,0,-4.3214,-4.3214,-4.3214,-4.3118,-4.3115,-4.3112,-4.311,-4.3122,-4.3124,-4.3127,0,0,0,0,0,0,0,0,0,0,0,0,0,-4.3093,-4.3095,-4.3202,-4.3202,-4.3202,-4.3214,-4.3214,-4.3214,-4.3118,-4.3115,-4.3111,-4.3108,-4.3121,-4.3124,-4.3127,0,0,0,0,0,0,0,0,0,0,0,0,0,-4.3126,-4.3096,-4.3202,-4.3155,-4.3151,-4.3214,-4.3214,-4.3214,-4.3119,-4.3115,-4.3111,-4.3107,-4.312,-4.3124,-4.3128,-4.3235,0,0,-4.3141,-4.3143,0,0,0,0,0,0,0,0,-4.3124,-4.313,-4.3162,-4.3159,-4.3154,-4.316,-4.318,-4.3221,-4.312,-4.3131,-4.311,-4.3105,-4.3138,-4.314,-4.3151,-4.3236,-4.3236,-4.3141,-4.3144,-4.3146,-4.3147,0,0,0,0,0,0,0,-4.3122,-4.3129,-4.3206,-4.3163,-4.3158,-4.3133,-4.3134,-4.3187,-4.3157,-4.313,-4.3123,-4.3126,-4.3135,-4.3148,-4.3151,-4.3236,-4.3141,-4.3145,-4.3148,-4.3149,-4.3408,-4.3412,0,0,0,0,0,0,-4.3126,-4.3128,-4.3206,-4.3207,-4.3129,-4.3139,-4.3139,-4.3162,-4.3156,-4.3151,-4.3129,-4.3121,-4.3142,-4.3146,-4.3151,-4.3275,-4.3146,-4.315,-4.3152,-4.3404,-4.3409,-4.3414,0,0,0,0,0,0,-4.3124,-4.3134,-4.3205,-4.3165,-4.3173,-4.3145,-4.3172,-4.3165,-4.3177,-4.3156,-4.3149,-4.3148,-4.3139,-4.3145,-4.3215,-4.3275,-4.3152,-4.3155,-4.3399,-4.3405,-4.3411,-4.3526,0,0,0,0,0,0,-4.3122,-4.3134,-4.3175,-4.3167,-4.3175,-4.327,-4.3176,-4.3168,-4.3185,-4.3175,-4.3172,-4.3167,-4.3136,-4.3209,-4.3219,-4.3278,-4.3159,-4.3393,-4.3402,-4.3409,-4.3517,-4.3536,-4.3552,0,0,0,0,0,-4.3118,-4.3207,-4.3178,-4.3188,-4.3226,-4.3274,-4.3278,-4.3241,-4.319,-4.3231,-4.3217,-4.3167,-4.3266,-4.3217,-4.3227,-4.3289,-4.3389,-4.3399,-4.3409,-4.3509,-4.3532,-4.3551,0,0,0,0,0,0,-4.3223,-4.3205,-4.3172,-4.3262,-4.327,-4.3257,-4.3307,-4.3267,-4.329,-4.3279,-4.3232,-4.3232,-4.331,-4.3306,-4.3251,-4.3392,-4.3319,-4.3331,-4.3391,-4.3413,-4.343,-4.343,-4.3162,0,0,0,0,0,-4.3256,-4.3297,-4.3279,-4.3359,-4.3365,-4.3336,-4.3355,-4.3326,-4.3333,-4.3336,-4.3326,-4.3335,-4.3367,-4.339,-4.3419,-4.3516,-4.3513,-4.3563,-4.358,-4.3595,-4.3606,-4.3656,-4.3678,-4.3446,-4.3446,-4.3445,0,0,-4.3326,-4.3321,-4.335,-4.338,-4.3383,-4.3426,-4.3339,-4.3388,-4.3419,-4.3343,-4.3408,-4.3402,-4.3407,-4.3491,-4.3528,-4.349,-4.367,-4.3607,-4.3619,-4.3622,-4.3669,-4.3691,-4.371,-4.3452,-4.3451,-4.345,0,0,-4.3474,-4.3475,-4.3542,-4.3546,-4.3552,-4.3531,-4.3548,-4.3541,-4.3534,-4.3599,-4.3542,-4.3578,-4.3635,-4.3642,-4.3652,-4.3802,-4.3757,-4.3813,-4.3904,-4.3954,-4.3972,-4.3988,-4.4042,-4.4061,-4.3824,-4.3824,-4.3824,0,-4.356,-4.3622,-4.3581,-4.3634,-4.3648,-4.3581,-4.3647,-4.3654,-4.3669,-4.368,-4.3638,-4.3709,-4.3708,-4.3792,-4.3828,-4.3839,-4.3856,-4.3813,-4.3973,-4.3989,-4.4003,-4.4053,-4.4073,-4.3831,-4.383,-4.383,-4.3829,0,-4.3727,-4.3771,-4.3824,-4.384,-4.3861,-4.392,-4.3887,-4.3913,-4.3882,-4.3866,-4.3932,-4.3928,-4.3955,-4.3973,-4.3943,-4.4052,-4.4029,-4.3981,-4.3907,-4.4033,-4.4079,-4.4098,-4.3841,-4.3838,-4.3836,-4.3835,0,0,-4.3943,-4.3935,-4.3955,-4.3961,-4.3961,-4.3994,-4.405,-4.4076,-4.4099,-4.4111,-4.4157,-4.4207,-4.4162,-4.4174,-4.4144,-4.4188,-4.4306,-4.4134,-4.4133,-4.4166,-4.4426,-4.4462,-4.4485,-4.4276,-4.428,-4.4282,-4.4425,0,-4.4088,-4.4183,-4.4147,-4.4245,-4.4285,-4.422,-4.4269,-4.4274,-4.4261,-4.4292,-4.4276,-4.4312,-4.4251,-4.4258,-4.4298,-4.4283,-4.4358,-4.4272,-4.4318,-4.432,-4.4319,-4.451,-4.4548,-4.4684,-4.4443,-4.4446,-4.4449,0,-4.427,-4.4289,-4.4391,-4.4384,-4.4399,-4.4444,-4.4464,-4.4495,-4.4499,-4.4486,-4.45,-4.446,-4.4513,-4.4439,-4.4512,-4.4455,-4.4471,-4.4467,-4.4471,-4.4474,-4.4392,-4.4518,-4.4726,-4.4747,-4.4477,-4.4474,-4.4472,0,-4.4417,-4.4468,-4.4536,-4.4543,-4.4536,-4.4569,-4.4568,-4.4568,-4.4586,-4.4603,-4.4614,-4.4638,-4.4652,-4.4671,-4.4638,-4.4587,-4.4716,-4.4639,-4.4706,-4.4707,-4.4737,-4.4735,-4.4951,-4.4747,-4.4747,-4.4746,-4.4746,0,-4.4582,-4.4647,-4.4602,-4.4643,-4.4714,-4.4671,-4.4742,-4.4733,-4.4734,-4.4772,-4.4718,-4.4755,-4.4709,-4.4742,-4.4717,-4.4781,-4.4787,-4.4778,-4.4771,-4.4783,-4.4784,-4.4793,-4.4783,-4.4752,-4.4751,-4.475,-4.4749,0,-4.4759,-4.4731,-4.48,-4.4788,-4.4786,-4.4839,-4.4828,-4.4866,-4.4847,-4.4897,-4.4906,-4.4878,-4.4913,-4.4882,-4.4917,-4.4899,-4.4985,-4.4964,-4.4984,-4.4978,-4.5047,-4.5041,-4.5276,-4.5304,-4.5083,-4.5085,-4.5086,0,-4.4867,-4.4915,-4.4908,-4.493,-4.4932,-4.4968,-4.4985,-4.4944,-4.4965,-4.4973,-4.501,-4.504,-4.5063,-4.5123,-4.5105,-4.5131,-4.511,-4.519,-4.5114,-4.5124,-4.5111,-4.5109,-4.5113,-4.5206,-4.5209,-4.5211,-4.5213,0,-4.5061,-4.5044,-4.5072,-4.5095,-4.5118,-4.5134,-4.5145,-4.5166,-4.5124,-4.515,-4.5186,-4.5203,-4.5238,-4.5269,-4.5289,-4.5287,-4.5243,-4.5237,-4.5254,-4.5267,-4.5277,-4.5273,-4.5026,-4.5232,-4.523,-4.5229,-4.5228,-4.5227,-4.5206,-4.5246,-4.5247,-4.5279,-4.5284,-4.5296,-4.533,-4.5316,-4.5345,-4.537,-4.5344,-4.5387,-4.5389,-4.5411,-4.5414,-4.5447,-4.5414,-4.5438,-4.5444,-4.5451,-4.5461,-4.5272,-4.5451,-4.545,-4.545,-4.5449,-4.5449,0,-4.5398,-4.5395,-4.5425,-4.5443,-4.5468,-4.5424,-4.5435,-4.5459,-4.5497,-4.5503,-4.5526,-4.5566,-4.5596,-4.5581,-4.5606,-4.5636,-4.5616,-4.5644,-4.5641,-4.5642,-4.549,-4.5473,-4.5659,-4.5659,-4.5659,-4.5659,-4.5659,-4.5659,-4.55,-4.5565,-4.5548,-4.5614,-4.561,-4.5652,-4.5662,-4.5672,-4.5676,-4.5724,-4.5748,-4.5738,-4.5735,-4.576,-4.5785,-4.5779,-4.5791,-4.5826,-4.5814,-4.5673,-4.5652,-4.5632,-4.5616,-4.5829,-4.583,-4.5963,-4.5964,-4.5965]}]]